Fairchild AFB, WA

3:27 PM PST on December 10, 2016 (GMT -0800)
Fairchild Air Force Base

Weather History for KSKA - December, 2013

Change the Weather History Date:

Tuesday, December 10, 2013

  Actual Average Record
Temperature  
Mean Temperature 16 °F -  
Max Temperature 24 °F 34 °F 54 °F (2014)
Min Temperature 9 °F 25 °F 8 °F (2007)
Degree Days  
Heating Degree Days 48    
Moisture  
Dew Point 11 °F    
Average Humidity 78    
Maximum Humidity 93    
Minimum Humidity 59    
Precipitation  
Precipitation 0.00 in - - ()
Sea Level Pressure  
Sea Level Pressure 30.35 in    
Wind  
Wind Speed 3 mph (NE)    
Max Wind Speed 7 mph    
Max Gust Speed -    
Visibility 10 miles    
Events Snow    
Averages and records for this station are not official NWS values.
T = Trace of Precipitation, MM = Missing Value Source: NWS Daily Summary

Daily Weather History Graph

Daily Weather History Graph

Search for Another Location

Airport or City:

Trip Planner

Search our weather history database for the weather conditions in past years. The results will help you decide how hot, cold, wet, or windy it might be!

Date:

Astronomy

Dec. 10, 2013 Rise Set
Actual Time 7:28 AM PST 3:58 PM PST
Civil Twilight 6:52 AM PST 4:34 PM PST
Nautical Twilight 6:13 AM PST 5:13 PM PST
Astronomical Twilight 5:35 AM PST 5:51 PM PST
Moon 12:24 PM PST 12:27 AM PST
Length of Visible Light 9h 42m
Length of Day
8h 30m
Waxing Gibbous, 63% of the Moon is Illuminated
Dec 10
Waxing Gibbous
Dec 17
Full
Dec 25
Last Quarter
Jan 1
New
Jan 7
First Quarter

Hourly Weather History & Observations

Time (PST) Temp. Windchill Dew Point Humidity Pressure Visibility Wind Dir Wind Speed Gust Speed Precip Events Conditions
12:24 AM 15.8 °F - 10.4 °F 79% 30.25 in 10.0 mi ESE 2.3 mph - N/A Snow Light Snow
12:32 AM 15.8 °F - 10.4 °F 79% 30.24 in 10.0 mi Calm Calm - N/A   Overcast
12:58 AM 16.7 °F 11.2 °F 10.6 °F 77% 30.36 in 10.0 mi NNW 3.5 mph - 0.00 in   Overcast
1:19 AM 17.6 °F 12.3 °F 10.4 °F 73% 30.24 in 10.0 mi NNW 3.5 mph - N/A Snow Light Snow
1:35 AM 15.8 °F - 10.4 °F 79% 30.24 in 10.0 mi North 2.3 mph - N/A   Overcast
1:36 AM 15.8 °F - 10.4 °F 79% 30.24 in 10.0 mi North 2.3 mph - N/A Snow Light Snow
1:46 AM 15.8 °F - 10.4 °F 79% 30.24 in 10.0 mi North 2.3 mph - N/A   Overcast
1:58 AM 16.2 °F - 10.8 °F 79% 30.37 in 10.0 mi Calm Calm - 0.00 in   Overcast
2:03 AM 15.8 °F - 10.4 °F 79% 30.24 in 10.0 mi Calm Calm - N/A   Overcast
2:45 AM 15.8 °F 10.2 °F 10.4 °F 79% 30.23 in 10.0 mi East 3.5 mph - N/A Snow Light Snow
2:58 AM 15.1 °F - 10.8 °F 83% 30.37 in 10.0 mi WNW 2.3 mph - 0.00 in Snow Light Snow
2:59 AM 15.8 °F - 10.4 °F 79% 30.24 in 10.0 mi WNW 2.3 mph - N/A   Partly Cloudy
3:16 AM 14.0 °F - 10.4 °F 86% 30.24 in 10.0 mi WNW 2.3 mph - N/A Snow Light Snow
3:33 AM 14.0 °F - 8.6 °F 79% 30.24 in 10.0 mi NNW 1.2 mph - N/A   Overcast
3:38 AM 14.0 °F 6.5 °F 10.4 °F 86% 30.25 in 10.0 mi NW 4.6 mph - N/A Snow Light Snow
3:54 AM 14.0 °F 8.2 °F 8.6 °F 79% 30.25 in 10.0 mi NW 3.5 mph - N/A   Scattered Clouds
3:58 AM 14.0 °F - 8.6 °F 79% 30.39 in 10.0 mi NW 2.3 mph - 0.00 in   Mostly Cloudy
4:58 AM 12.0 °F 5.9 °F 8.2 °F 85% 30.40 in 10.0 mi West 3.5 mph - N/A   Clear
5:24 AM 10.4 °F - 6.8 °F 85% 30.26 in 10.0 mi SSW 2.3 mph - N/A Snow Light Snow
5:30 AM 10.4 °F - 6.8 °F 85% 30.26 in 10.0 mi SSW 2.3 mph - N/A   Scattered Clouds
5:58 AM 9.7 °F - 6.4 °F 87% 30.41 in 10.0 mi SSW 2.3 mph - 0.00 in   Mostly Cloudy
6:34 AM 10.4 °F 4.0 °F 5.0 °F 79% 30.28 in 10.0 mi South 3.5 mph - N/A Snow Light Snow
6:43 AM 10.4 °F - 6.8 °F 85% 30.28 in 10.0 mi South 2.3 mph - N/A   Mostly Cloudy
6:58 AM 11.3 °F 5.1 °F 7.7 °F 85% 30.42 in 10.0 mi South 3.5 mph - 0.00 in   Overcast
6:59 AM 10.4 °F 4.0 °F 6.8 °F 85% 30.28 in 10.0 mi South 3.5 mph - N/A Snow Light Snow
7:09 AM 12.2 °F 6.1 °F 8.6 °F 85% 30.28 in 10.0 mi South 3.5 mph - N/A   Overcast
7:58 AM 13.1 °F - 9.5 °F 86% 30.44 in 10.0 mi ESE 2.3 mph - 0.00 in   Overcast
8:15 AM 14.0 °F 8.2 °F 10.4 °F 86% 30.29 in 10.0 mi ESE 3.5 mph - N/A Snow Light Snow
8:23 AM 14.0 °F - 10.4 °F 86% 30.30 in 10.0 mi SE 2.3 mph - N/A   Overcast
8:58 AM 15.4 °F 9.8 °F 10.9 °F 82% 30.46 in 10.0 mi NNE 3.5 mph - 0.00 in   Overcast
9:39 AM 17.6 °F 12.3 °F 10.4 °F 73% 30.34 in 10.0 mi ENE 3.5 mph - N/A Snow Light Snow
9:51 AM 17.6 °F - 10.4 °F 73% 30.34 in 10.0 mi ENE 2.3 mph - N/A   Mostly Cloudy
9:58 AM 16.9 °F 11.5 °F 10.9 °F 77% 30.49 in 10.0 mi ESE 3.5 mph - 0.00 in   Mostly Cloudy
10:06 AM 17.6 °F 12.3 °F 10.4 °F 73% 30.35 in 10.0 mi Variable 3.5 mph - N/A Snow Light Snow
10:28 AM 17.6 °F 10.7 °F 10.4 °F 73% 30.34 in 10.0 mi SE 4.6 mph - N/A   Overcast
10:55 AM 19.4 °F 11.5 °F 10.4 °F 68% 30.33 in 10.0 mi SSE 5.8 mph - N/A Snow Light Snow
10:58 AM 19.0 °F 10.0 °F 9.7 °F 67% 30.46 in 10.0 mi SSE 6.9 mph - 0.00 in Snow Light Snow
11:13 AM 19.4 °F 14.3 °F 10.4 °F 68% 30.33 in 10.0 mi Variable 3.5 mph - N/A   Mostly Cloudy
11:47 AM 21.2 °F 14.9 °F 10.4 °F 63% 30.33 in 10.0 mi South 4.6 mph - N/A Snow Light Snow
11:58 AM 20.8 °F 14.4 °F 10.6 °F 65% 30.45 in 10.0 mi South 4.6 mph - 0.00 in Snow Light Snow
12:18 PM 23.0 °F 18.4 °F 12.2 °F 63% 30.32 in 10.0 mi Variable 3.5 mph - N/A   Mostly Cloudy
12:58 PM 23.4 °F - 12.0 °F 62% 30.44 in 10.0 mi South 2.3 mph - 0.00 in   Partly Cloudy
1:27 PM 24.8 °F 20.5 °F 12.2 °F 59% 30.32 in 10.0 mi SE 3.5 mph - N/A   Partly Cloudy
1:53 PM 24.8 °F - 12.2 °F 59% 30.33 in 10.0 mi SSE 1.2 mph - N/A   Scattered Clouds
1:58 PM 24.3 °F - 12.4 °F 61% 30.45 in 10.0 mi North - - 0.00 in   Scattered Clouds
2:58 PM 23.9 °F - 12.6 °F 62% 30.47 in 10.0 mi Calm Calm - N/A   Mostly Cloudy
3:58 PM 22.5 °F - 12.6 °F 66% 30.47 in 10.0 mi North 2.3 mph - N/A   Mostly Cloudy
4:58 PM 19.2 °F 14.1 °F 11.8 °F 73% 30.49 in 10.0 mi NNW 3.5 mph - N/A   Clear
5:58 PM 18.9 °F - 10.8 °F 71% 30.49 in 10.0 mi NNW 1.2 mph - N/A   Clear
6:58 PM 14.0 °F 8.2 °F 8.6 °F 79% 30.49 in 10.0 mi East 3.5 mph - 0.00 in Snow Light Snow
7:08 PM 14.0 °F 8.2 °F 8.6 °F 79% 30.34 in 10.0 mi ENE 3.5 mph - N/A   Clear
7:10 PM 14.0 °F 8.2 °F 8.6 °F 79% 30.34 in 10.0 mi ENE 3.5 mph - N/A   Partly Cloudy
7:20 PM 14.0 °F - 8.6 °F 79% 30.34 in 10.0 mi ENE 2.3 mph - N/A   Mostly Cloudy
7:26 PM 14.0 °F - 10.4 °F 86% 30.34 in 10.0 mi East 2.3 mph - N/A Snow Light Snow
7:36 PM 15.8 °F - 12.2 °F 86% 30.34 in 10.0 mi Calm Calm - N/A Snow Light Snow
7:42 PM 15.8 °F - 12.2 °F 86% 30.34 in 10.0 mi Calm Calm - N/A   Overcast
7:45 PM 15.8 °F - 12.2 °F 86% 30.34 in 10.0 mi Calm Calm - N/A Snow Light Snow
7:50 PM 17.6 °F - 12.2 °F 79% 30.34 in 10.0 mi East 1.2 mph - N/A Snow Light Snow
7:53 PM 17.6 °F - 12.2 °F 79% 30.34 in 10.0 mi East 1.2 mph - N/A   Overcast
7:58 PM 17.6 °F - 12.2 °F 79% 30.49 in 10.0 mi Calm Calm - 0.00 in   Overcast
8:08 PM 19.4 °F - 15.8 °F 86% 30.35 in 10.0 mi Calm Calm - N/A   Overcast
8:33 PM 21.2 °F - 17.6 °F 86% 30.36 in 10.0 mi NNE 1.2 mph - N/A   Overcast
8:58 PM 21.7 °F - 18.7 °F 88% 30.48 in 10.0 mi NE 2.3 mph - N/A   Overcast
9:33 PM 21.2 °F 16.4 °F 19.4 °F 93% 30.36 in 10.0 mi North 3.5 mph - N/A   Overcast
9:51 PM 21.2 °F 14.9 °F 17.6 °F 86% 30.36 in 10.0 mi North 4.6 mph - N/A   Overcast
9:58 PM 21.4 °F 16.6 °F 18.1 °F 87% 30.50 in 10.0 mi North 3.5 mph - 0.00 in   Overcast
10:13 PM 21.2 °F - 17.6 °F 86% 30.37 in 10.0 mi NNE 2.3 mph - N/A   Overcast
10:20 PM 21.2 °F - 17.6 °F 86% 30.37 in 10.0 mi NNE 2.3 mph - N/A Snow Light Snow
10:22 PM 21.2 °F - 15.8 °F 80% 30.37 in 10.0 mi NNE 2.3 mph - N/A Snow Light Snow
10:36 PM 21.2 °F 13.6 °F 15.8 °F 80% 30.37 in 10.0 mi NNE 5.8 mph - N/A   Overcast
10:58 PM 21.2 °F 14.9 °F 15.4 °F 78% 30.49 in 10.0 mi NNW 4.6 mph - 0.00 in   Overcast
11:33 PM 21.2 °F 14.9 °F 15.8 °F 80% 30.37 in 10.0 mi North 4.6 mph - N/A Snow Light Snow
11:55 PM 21.2 °F - 14.0 °F 74% 30.36 in 10.0 mi North 2.3 mph - N/A   Overcast
11:58 PM 20.5 °F - 13.8 °F 75% 30.48 in 10.0 mi North 2.3 mph - 0.00 in   Overcast